[[{"header":{"parameterUnit":"m.s-1","parameterCategory":2,"la1":30.2991,"la2":30.254,"lo1":-89.0895,"lo2":-89.0444,"dy":0.0017,"dx":0.0017,"nx":28,"ny":28,"refTime":"2023-07-28T21:00:00:Z","depth":"0","parameterNumber":2,"parameterNumberName":"U-component_of_CURRENTS"},"data":[0,0,0,0,0,0,0,0,0,0,0,0,0,0,0,0,0,0,0,0,0,0,0,0,0,0,0,0,0,0,0,0,0,0,0,0,0,0,0,0,0,0,0,0,0,0,0,0,0,0,0,0,0,0,0,0,0,0,-0.1015,-0.1015,0,-0.1006,-0.1006,-0.1007,-0.0965,-0.0963,-0.0962,-0.0961,-0.0987,-0.0989,-0.099,0,0,0,0,0,0,0,0,0,0,0,0,0,-0.1039,-0.1039,-0.1015,-0.1015,-0.1014,-0.1006,-0.1006,-0.1007,-0.0965,-0.0963,-0.0962,-0.0961,-0.0986,-0.0988,-0.099,0,0,0,0,0,0,0,0,0,0,0,0,0,-0.1031,-0.1039,-0.1015,-0.0991,-0.0989,-0.1006,-0.1006,-0.1007,-0.0965,-0.0963,-0.0961,-0.096,-0.0985,-0.0988,-0.0991,-0.1042,0,0,-0.0999,-0.1,0,0,0,0,0,0,0,0,-0.1032,-0.1031,-0.0995,-0.0993,-0.099,-0.0983,-0.1024,-0.102,-0.0965,-0.0976,-0.0961,-0.0959,-0.0989,-0.0991,-0.0996,-0.1044,-0.1045,-0.0999,-0.1001,-0.1002,-0.1003,0,0,0,0,0,0,0,-0.1032,-0.1031,-0.1014,-0.0995,-0.0992,-0.0996,-0.0992,-0.1023,-0.0995,-0.0975,-0.0971,-0.0968,-0.0988,-0.0993,-0.0996,-0.1045,-0.0999,-0.1001,-0.1003,-0.1004,-0.1103,-0.1104,0,0,0,0,0,0,-0.1029,-0.1031,-0.1014,-0.1013,-0.1005,-0.0996,-0.0993,-0.0989,-0.0993,-0.0992,-0.097,-0.0966,-0.0989,-0.0993,-0.0997,-0.1025,-0.1002,-0.1004,-0.1006,-0.1102,-0.1103,-0.1105,0,0,0,0,0,0,-0.103,-0.1028,-0.1014,-0.102,-0.1019,-0.0997,-0.0993,-0.0989,-0.0992,-0.0988,-0.0987,-0.0975,-0.0988,-0.0993,-0.1,-0.1027,-0.1006,-0.1008,-0.1101,-0.1103,-0.1104,-0.1104,0,0,0,0,0,0,-0.103,-0.1028,-0.1024,-0.102,-0.1018,-0.1019,-0.0995,-0.099,-0.0992,-0.0987,-0.0994,-0.0994,-0.0987,-0.0996,-0.1003,-0.103,-0.101,-0.11,-0.1102,-0.1104,-0.1103,-0.1105,-0.1108,0,0,0,0,0,-0.1031,-0.1017,-0.1024,-0.1021,-0.1013,-0.1019,-0.1019,-0.0999,-0.0994,-0.0996,-0.0986,-0.0993,-0.1014,-0.0998,-0.1006,-0.1035,-0.1099,-0.1101,-0.1103,-0.1102,-0.1105,-0.1108,0,0,0,0,0,0,-0.1017,-0.1011,-0.1018,-0.1002,-0.1014,-0.101,-0.1005,-0.1009,-0.1007,-0.0998,-0.0999,-0.0999,-0.1024,-0.1031,-0.1014,-0.1071,-0.1063,-0.1067,-0.1059,-0.1062,-0.1064,-0.1072,-0.1012,0,0,0,0,0,-0.1018,-0.1008,-0.1017,-0.1007,-0.1013,-0.102,-0.1021,-0.1015,-0.1012,-0.1009,-0.1012,-0.1022,-0.1045,-0.1049,-0.1068,-0.1096,-0.1107,-0.1124,-0.1126,-0.1128,-0.114,-0.1177,-0.1183,-0.1112,-0.1112,-0.1112,0,0,-0.1001,-0.1005,-0.0993,-0.1004,-0.1011,-0.1018,-0.1016,-0.1016,-0.1024,-0.1016,-0.1021,-0.1036,-0.1056,-0.1078,-0.1091,-0.1081,-0.115,-0.1131,-0.1132,-0.1144,-0.118,-0.1187,-0.1193,-0.1114,-0.1114,-0.1113,0,0,-0.0978,-0.0981,-0.0973,-0.0985,-0.1,-0.1011,-0.1016,-0.1024,-0.1029,-0.1041,-0.1044,-0.108,-0.1089,-0.1121,-0.1138,-0.1177,-0.1169,-0.1172,-0.1183,-0.1218,-0.1224,-0.1229,-0.123,-0.1236,-0.1165,-0.1165,-0.1165,0,-0.0967,-0.0956,-0.0973,-0.098,-0.0981,-0.1011,-0.1011,-0.1033,-0.1039,-0.1056,-0.1037,-0.1096,-0.1125,-0.1177,-0.1179,-0.1189,-0.1173,-0.1165,-0.122,-0.1226,-0.1232,-0.1232,-0.1238,-0.1165,-0.1165,-0.1165,-0.1165,0,-0.0943,-0.0938,-0.0936,-0.0956,-0.097,-0.0969,-0.1005,-0.1025,-0.1039,-0.1061,-0.111,-0.1142,-0.1177,-0.1199,-0.1195,-0.1256,-0.1218,-0.1223,-0.1208,-0.1238,-0.1237,-0.1243,-0.1165,-0.1165,-0.1165,-0.1165,0,0,-0.0901,-0.0915,-0.0914,-0.0918,-0.0952,-0.0958,-0.0994,-0.1035,-0.1059,-0.1091,-0.1123,-0.1193,-0.1215,-0.1237,-0.1257,-0.1288,-0.1321,-0.1254,-0.1256,-0.1248,-0.1347,-0.1198,-0.119,-0.1305,-0.1307,-0.1308,-0.1321,0,-0.0879,-0.0878,-0.0893,-0.0891,-0.0893,-0.0934,-0.0962,-0.1009,-0.105,-0.109,-0.1166,-0.1201,-0.1228,-0.1234,-0.128,-0.1309,-0.1339,-0.1315,-0.1326,-0.1327,-0.1185,-0.1195,-0.1041,-0.1027,-0.1327,-0.1328,-0.1329,0,-0.0847,-0.0854,-0.0848,-0.0861,-0.0866,-0.0874,-0.0925,-0.0952,-0.1039,-0.1071,-0.1139,-0.118,-0.126,-0.1265,-0.135,-0.1311,-0.1336,-0.1358,-0.1359,-0.1228,-0.1191,-0.1052,-0.1028,-0.0961,-0.1339,-0.1338,-0.1337,0,-0.0808,-0.0814,-0.0808,-0.0811,-0.0843,-0.0851,-0.0869,-0.0945,-0.0971,-0.1058,-0.1075,-0.1178,-0.1205,-0.1273,-0.1327,-0.1324,-0.1388,-0.1402,-0.1302,-0.1291,-0.1172,-0.1146,-0.1082,-0.1474,-0.1474,-0.1474,-0.1474,0,-0.0769,-0.0756,-0.0786,-0.0779,-0.0778,-0.081,-0.0826,-0.087,-0.0929,-0.0959,-0.1053,-0.1078,-0.1199,-0.1247,-0.1312,-0.1303,-0.1386,-0.1303,-0.1287,-0.1162,-0.1137,-0.1082,-0.1201,-0.1474,-0.1474,-0.1474,-0.1474,0,-0.0712,-0.0732,-0.0725,-0.0751,-0.0758,-0.0755,-0.078,-0.0795,-0.0852,-0.0889,-0.0907,-0.0996,-0.104,-0.1143,-0.124,-0.1248,-0.1258,-0.1274,-0.1094,-0.1055,-0.0858,-0.0986,-0.1053,-0.1016,-0.1152,-0.1148,-0.1145,0,-0.0676,-0.067,-0.0698,-0.0699,-0.0704,-0.0709,-0.0715,-0.076,-0.0778,-0.0831,-0.0838,-0.088,-0.0901,-0.0962,-0.0998,-0.1052,-0.1138,-0.0923,-0.0914,-0.0812,-0.0947,-0.1052,-0.1026,-0.0762,-0.0757,-0.0752,-0.0748,0,-0.0604,-0.0623,-0.0623,-0.0639,-0.0639,-0.064,-0.0645,-0.0649,-0.0699,-0.0713,-0.0719,-0.0723,-0.0741,-0.0701,-0.0731,-0.0754,-0.0871,-0.0819,-0.0784,-0.0691,-0.0742,-0.0706,-0.0779,-0.0705,-0.0709,-0.0712,-0.0715,-0.0716,-0.0552,-0.0538,-0.0555,-0.0561,-0.0567,-0.056,-0.0533,-0.0551,-0.0544,-0.0545,-0.0588,-0.055,-0.0481,-0.0477,-0.0456,-0.0317,-0.0584,-0.0308,-0.0489,-0.0611,-0.0528,-0.0471,-0.0328,-0.033,-0.0332,-0.0333,-0.0335,0,-0.0489,-0.0478,-0.0475,-0.0476,-0.0462,-0.0491,-0.0477,-0.0443,-0.041,-0.0414,-0.0403,-0.0294,-0.0167,-0.01,0.0016,0.0018,-0.0023,-0.0037,-0.0162,-0.0163,-0.0124,-0.0043,0.0256,0.0256,0.0256,0.0256,0.0256,0.0256,-0.0457,-0.0429,-0.0429,-0.0379,-0.0378,-0.0329,-0.0308,-0.0269,-0.0248,-0.0173,-0.0117,-0.0104,-0.0006,0.001,0.0155,0.0164,0.0062,-0.0007,-0.0122,-0.0083,-0.0121,-0.0157,-0.0094,0.019,0.0189,0.001,0.0007,0.0005]},{"header":{"parameterUnit":"m.s-1","parameterCategory":2,"la1":30.2991,"la2":30.254,"lo1":-89.0895,"lo2":-89.0444,"dy":0.0017,"dx":0.0017,"nx":28,"ny":28,"refTime":"2023-07-28T21:00:00:Z","depth":"0","parameterNumber":3,"parameterNumberName":"V-component_of_CURRENTS"},"data":[0,0,0,0,0,0,0,0,0,0,0,0,0,0,0,0,0,0,0,0,0,0,0,0,0,0,0,0,0,0,0,0,0,0,0,0,0,0,0,0,0,0,0,0,0,0,0,0,0,0,0,0,0,0,0,0,0,0,-0.0485,-0.0486,0,-0.0525,-0.0525,-0.0525,-0.0467,-0.0466,-0.0464,-0.0463,-0.0407,-0.0407,-0.0407,0,0,0,0,0,0,0,0,0,0,0,0,0,-0.0367,-0.0369,-0.0485,-0.0486,-0.0487,-0.0525,-0.0525,-0.0525,-0.0467,-0.0465,-0.0464,-0.0462,-0.0407,-0.0407,-0.0407,0,0,0,0,0,0,0,0,0,0,0,0,0,-0.0408,-0.0369,-0.0485,-0.0467,-0.0466,-0.0525,-0.0525,-0.0525,-0.0468,-0.0465,-0.0463,-0.0461,-0.0407,-0.0407,-0.0407,-0.0452,0,0,-0.0407,-0.0407,0,0,0,0,0,0,0,0,-0.0406,-0.0412,-0.0469,-0.0468,-0.0468,-0.0494,-0.0463,-0.0498,-0.0468,-0.0461,-0.0463,-0.046,-0.0433,-0.0431,-0.0436,-0.0449,-0.0447,-0.0407,-0.0407,-0.0407,-0.0407,0,0,0,0,0,0,0,-0.0403,-0.041,-0.0495,-0.047,-0.047,-0.046,-0.0463,-0.047,-0.0453,-0.0462,-0.0459,-0.0473,-0.0431,-0.0437,-0.0434,-0.0446,-0.0407,-0.0407,-0.0407,-0.0407,-0.0486,-0.0488,0,0,0,0,0,0,-0.0412,-0.0408,-0.0494,-0.0497,-0.0437,-0.0465,-0.0467,-0.0483,-0.0455,-0.0451,-0.0475,-0.0471,-0.0438,-0.0434,-0.0432,-0.0481,-0.0407,-0.0407,-0.0407,-0.0484,-0.0487,-0.0489,0,0,0,0,0,0,-0.041,-0.042,-0.0492,-0.0457,-0.0466,-0.047,-0.0487,-0.0485,-0.0482,-0.0467,-0.046,-0.0474,-0.0436,-0.0432,-0.0462,-0.0478,-0.0407,-0.0406,-0.0482,-0.0485,-0.0488,-0.0581,0,0,0,0,0,0,-0.0406,-0.0419,-0.043,-0.0458,-0.0469,-0.0529,-0.049,-0.0488,-0.0498,-0.0491,-0.0464,-0.0457,-0.0434,-0.0463,-0.0462,-0.0477,-0.0406,-0.0479,-0.0483,-0.0487,-0.0575,-0.0587,-0.0597,0,0,0,0,0,-0.0402,-0.0426,-0.0431,-0.0441,-0.0486,-0.0531,-0.0535,-0.0525,-0.05,-0.051,-0.0509,-0.0457,-0.0487,-0.0466,-0.0464,-0.0479,-0.0477,-0.0482,-0.0487,-0.057,-0.0585,-0.0597,0,0,0,0,0,0,-0.038,-0.0425,-0.0429,-0.0465,-0.0499,-0.0523,-0.0539,-0.0532,-0.054,-0.0533,-0.05,-0.0496,-0.0525,-0.0501,-0.0479,-0.0516,-0.0467,-0.0472,-0.0532,-0.0545,-0.0556,-0.0556,-0.0406,0,0,0,0,0,-0.0387,-0.0416,-0.0457,-0.0489,-0.0508,-0.0524,-0.054,-0.054,-0.0556,-0.0555,-0.0544,-0.0537,-0.0549,-0.0545,-0.0552,-0.0581,-0.0553,-0.0586,-0.0597,-0.0606,-0.0607,-0.0599,-0.0609,-0.0505,-0.0505,-0.0505,0,0,-0.039,-0.042,-0.0436,-0.0488,-0.0511,-0.0554,-0.0526,-0.0562,-0.0592,-0.0551,-0.0585,-0.0581,-0.057,-0.0605,-0.0612,-0.0581,-0.0625,-0.0612,-0.062,-0.0616,-0.0605,-0.0615,-0.0623,-0.0508,-0.0508,-0.0507,0,0,-0.0416,-0.044,-0.0471,-0.0506,-0.0555,-0.0577,-0.0588,-0.0622,-0.0627,-0.0674,-0.0653,-0.0676,-0.0679,-0.0687,-0.0687,-0.0767,-0.0691,-0.0748,-0.0794,-0.0787,-0.0795,-0.0801,-0.0792,-0.0797,-0.0745,-0.0745,-0.0745,0,-0.0414,-0.0463,-0.0489,-0.0532,-0.0567,-0.0589,-0.0633,-0.0659,-0.0697,-0.0714,-0.0692,-0.0734,-0.0724,-0.0771,-0.0793,-0.0791,-0.0762,-0.0743,-0.08,-0.0806,-0.0811,-0.0799,-0.0803,-0.075,-0.0749,-0.0749,-0.0748,0,-0.0467,-0.0505,-0.0532,-0.0595,-0.0637,-0.0683,-0.0731,-0.0765,-0.0775,-0.0794,-0.0843,-0.0852,-0.0867,-0.087,-0.0852,-0.0887,-0.0849,-0.082,-0.0762,-0.0826,-0.081,-0.0813,-0.0757,-0.0755,-0.0754,-0.0753,0,0,-0.0461,-0.0547,-0.0556,-0.059,-0.0673,-0.071,-0.0782,-0.0845,-0.0872,-0.0913,-0.0949,-0.0991,-0.098,-0.0982,-0.0968,-0.0961,-0.0981,-0.0898,-0.0895,-0.0881,-0.0951,-0.0881,-0.0876,-0.0945,-0.0945,-0.0946,-0.0929,0,-0.0491,-0.0566,-0.0612,-0.0692,-0.0735,-0.0789,-0.085,-0.0909,-0.094,-0.0981,-0.1011,-0.1037,-0.1027,-0.1024,-0.1031,-0.1002,-0.0988,-0.0987,-0.0897,-0.0894,-0.0817,-0.0877,-0.0778,-0.0749,-0.0931,-0.0932,-0.0932,0,-0.0529,-0.0572,-0.0644,-0.0731,-0.0755,-0.0808,-0.0894,-0.095,-0.102,-0.1039,-0.1085,-0.109,-0.114,-0.1087,-0.1095,-0.1087,-0.1022,-0.0986,-0.0984,-0.0883,-0.0828,-0.0713,-0.0746,-0.0485,-0.0935,-0.0935,-0.0934,0,-0.0509,-0.06,-0.065,-0.0683,-0.0782,-0.0824,-0.0882,-0.0961,-0.1004,-0.1066,-0.1084,-0.1148,-0.1154,-0.1137,-0.1096,-0.1081,-0.1063,-0.1034,-0.0913,-0.0908,-0.0789,-0.0771,-0.0549,-0.0995,-0.0995,-0.0995,-0.0995,0,-0.0531,-0.0572,-0.0638,-0.0668,-0.0731,-0.0807,-0.0874,-0.0934,-0.1008,-0.1054,-0.1102,-0.1133,-0.1151,-0.1151,-0.1114,-0.1042,-0.1086,-0.0932,-0.0902,-0.082,-0.0806,-0.0544,-0.0472,-0.0994,-0.0995,-0.0995,-0.0995,0,-0.0514,-0.0558,-0.0614,-0.0697,-0.0724,-0.0769,-0.0873,-0.0919,-0.098,-0.1039,-0.1059,-0.1121,-0.1138,-0.1145,-0.1104,-0.1038,-0.0857,-0.0927,-0.0834,-0.0794,-0.044,-0.0381,-0.0257,-0.0142,-0.0812,-0.081,-0.0809,0,-0.0517,-0.0538,-0.0613,-0.0643,-0.0683,-0.0751,-0.0806,-0.0897,-0.0948,-0.103,-0.1058,-0.1085,-0.1118,-0.1072,-0.1,-0.0945,-0.0766,-0.0718,-0.0674,-0.0406,-0.0319,-0.0322,-0.0235,-0.0562,-0.0558,-0.0556,-0.0553,0,-0.0512,-0.0529,-0.0569,-0.0626,-0.068,-0.0741,-0.0821,-0.0857,-0.0956,-0.1,-0.1054,-0.1082,-0.1055,-0.0992,-0.0888,-0.0791,-0.0535,-0.0655,-0.0398,-0.0124,-0.0095,0.0026,-0.0586,-0.0529,-0.0531,-0.0533,-0.0534,-0.0535,-0.0497,-0.0519,-0.0565,-0.0623,-0.067,-0.0727,-0.0774,-0.0844,-0.0912,-0.0975,-0.1019,-0.1038,-0.0907,-0.0798,-0.066,-0.0227,-0.0367,-0.0043,-0.0004,-0.0038,0.0112,-0.0446,-0.0338,-0.034,-0.0341,-0.0342,-0.0343,0,-0.0492,-0.052,-0.0566,-0.0632,-0.0669,-0.0706,-0.0783,-0.0818,-0.0873,-0.0911,-0.095,-0.0843,-0.0611,-0.0371,0.0098,0.0406,0.0451,0.059,0.0654,0.0704,0.0225,0.0287,0.0561,0.0561,0.0561,0.0561,0.056,0.056,-0.049,-0.0531,-0.0562,-0.0616,-0.0651,-0.07,-0.0735,-0.0773,-0.0801,-0.0784,-0.0749,-0.0728,-0.0305,0.0373,0.1004,0.1097,0.132,0.1249,0.1334,0.1091,0.1037,0.0985,0.1069,0.1503,0.1504,0.1838,0.1841,0.1844]}],[{"header":{"parameterUnit":"m.s-1","parameterCategory":2,"la1":30.2991,"la2":30.254,"lo1":-89.0895,"lo2":-89.0444,"dy":0.0017,"dx":0.0017,"nx":28,"ny":28,"refTime":"2023-07-28T21:00:00:Z","depth":"2","parameterNumber":2,"parameterNumberName":"U-component_of_CURRENTS"},"data":[0,0,0,0,0,0,0,0,0,0,0,0,0,0,0,0,0,0,0,0,0,0,0,0,0,0,0,0,0,0,0,0,0,0,0,0,0,0,0,0,0,0,0,0,0,0,0,0,0,0,0,0,0,0,0,0,0,0,-0.2534,-0.2534,0,-0.2577,-0.2579,-0.258,-0.2658,-0.2659,-0.2659,-0.266,-0.2606,-0.2604,-0.2602,0,0,0,0,0,0,0,0,0,0,0,0,0,-0.2558,-0.2558,-0.2534,-0.2534,-0.2533,-0.2577,-0.2579,-0.258,-0.2658,-0.2659,-0.2659,-0.266,-0.2607,-0.2605,-0.2602,0,0,0,0,0,0,0,0,0,0,0,0,0,-0.2579,-0.2558,-0.2534,-0.257,-0.2573,-0.2577,-0.2579,-0.2581,-0.2658,-0.2659,-0.266,-0.266,-0.2608,-0.2605,-0.2602,-0.2568,0,0,-0.2593,-0.2592,0,0,0,0,0,0,0,0,-0.2578,-0.2579,-0.2565,-0.2567,-0.257,-0.2604,-0.2567,-0.2568,-0.2658,-0.2636,-0.266,-0.2661,-0.2589,-0.2588,-0.261,-0.2565,-0.2563,-0.2593,-0.2591,-0.259,-0.2589,0,0,0,0,0,0,0,-0.2576,-0.2578,-0.2562,-0.2564,-0.2567,-0.2596,-0.2601,-0.2569,-0.2614,-0.2638,-0.2642,-0.263,-0.2591,-0.2613,-0.2609,-0.2562,-0.2593,-0.259,-0.2589,-0.2587,-0.2464,-0.2463,0,0,0,0,0,0,-0.2547,-0.2576,-0.256,-0.2562,-0.2564,-0.2594,-0.26,-0.2601,-0.2616,-0.2617,-0.2629,-0.2633,-0.2618,-0.2612,-0.2607,-0.2587,-0.259,-0.2587,-0.2585,-0.2466,-0.2464,-0.2462,0,0,0,0,0,0,-0.2547,-0.2545,-0.2558,-0.2561,-0.2564,-0.2591,-0.2593,-0.2601,-0.2631,-0.2608,-0.261,-0.265,-0.2618,-0.2611,-0.2581,-0.2584,-0.2586,-0.2583,-0.2468,-0.2465,-0.2463,-0.2533,0,0,0,0,0,0,-0.2548,-0.2546,-0.2561,-0.2559,-0.2562,-0.2567,-0.2591,-0.2601,-0.2617,-0.2623,-0.2626,-0.2622,-0.2618,-0.2585,-0.2578,-0.258,-0.2581,-0.2469,-0.2466,-0.2464,-0.2532,-0.2533,-0.2534,0,0,0,0,0,-0.2549,-0.257,-0.2562,-0.2561,-0.2574,-0.2566,-0.2572,-0.2601,-0.2617,-0.2633,-0.2626,-0.2623,-0.2561,-0.2582,-0.2574,-0.2576,-0.2471,-0.2467,-0.2464,-0.2532,-0.2533,-0.2534,0,0,0,0,0,0,-0.2543,-0.2578,-0.257,-0.2587,-0.2572,-0.2576,-0.2603,-0.2601,-0.2614,-0.2629,-0.2608,-0.2603,-0.2577,-0.2551,-0.2574,-0.2524,-0.2512,-0.2507,-0.2566,-0.2567,-0.2568,-0.2555,-0.2579,0,0,0,0,0,-0.2551,-0.2626,-0.2586,-0.2607,-0.2596,-0.2595,-0.2603,-0.2612,-0.2607,-0.2619,-0.2607,-0.2584,-0.2553,-0.2542,-0.2514,-0.2488,-0.2443,-0.2476,-0.2477,-0.2478,-0.2458,-0.2419,-0.2416,-0.2451,-0.2451,-0.2451,0,0,-0.2564,-0.2585,-0.2628,-0.262,-0.2622,-0.2608,-0.2608,-0.2622,-0.2622,-0.2603,-0.2614,-0.2587,-0.2543,-0.2524,-0.2509,-0.2508,-0.2438,-0.2474,-0.2476,-0.2454,-0.2415,-0.2412,-0.2409,-0.2448,-0.2449,-0.2449,0,0,-0.2598,-0.2625,-0.2675,-0.2661,-0.2652,-0.265,-0.2644,-0.2633,-0.2647,-0.2625,-0.2615,-0.2585,-0.2542,-0.2522,-0.2501,-0.2475,-0.2441,-0.2464,-0.2467,-0.2432,-0.2429,-0.2427,-0.2349,-0.2339,-0.247,-0.247,-0.247,0,-0.2604,-0.2634,-0.2676,-0.2671,-0.2661,-0.2659,-0.2642,-0.2652,-0.2637,-0.2622,-0.2631,-0.2552,-0.2538,-0.249,-0.2495,-0.2481,-0.2438,-0.2483,-0.2437,-0.2433,-0.243,-0.235,-0.2338,-0.2473,-0.2472,-0.2472,-0.2472,0,-0.2625,-0.2649,-0.2665,-0.2683,-0.268,-0.2677,-0.2655,-0.2664,-0.2664,-0.2642,-0.2595,-0.257,-0.2518,-0.2513,-0.2503,-0.2461,-0.2431,-0.2447,-0.2449,-0.2431,-0.2347,-0.2333,-0.2477,-0.2476,-0.2475,-0.2474,0,0,-0.2636,-0.2681,-0.2684,-0.268,-0.2682,-0.2672,-0.2682,-0.2653,-0.2639,-0.2621,-0.2583,-0.2543,-0.2522,-0.2492,-0.2476,-0.2449,-0.2402,-0.2444,-0.2441,-0.2388,-0.2287,-0.2137,-0.2107,-0.2425,-0.2424,-0.2422,-0.2235,0,-0.2625,-0.2638,-0.2663,-0.2663,-0.2651,-0.2658,-0.2656,-0.2642,-0.263,-0.2601,-0.2561,-0.2522,-0.2517,-0.2503,-0.2473,-0.2425,-0.237,-0.2447,-0.229,-0.2284,-0.2173,-0.2088,-0.201,-0.1825,-0.2221,-0.2219,-0.2217,0,-0.2609,-0.2628,-0.2622,-0.2644,-0.2634,-0.2626,-0.2616,-0.2616,-0.2584,-0.2573,-0.253,-0.2504,-0.2454,-0.2467,-0.2347,-0.2401,-0.2336,-0.2291,-0.2284,-0.2105,-0.2108,-0.1905,-0.1785,-0.2194,-0.2196,-0.2198,-0.2199,0,-0.258,-0.2598,-0.2602,-0.2599,-0.2609,-0.2601,-0.2607,-0.2587,-0.2565,-0.2554,-0.2513,-0.2471,-0.2412,-0.2366,-0.2258,-0.2319,-0.21,-0.2182,-0.1962,-0.195,-0.1825,-0.1804,-0.2069,-0.2069,-0.207,-0.207,-0.2071,0,-0.2559,-0.2552,-0.2582,-0.2571,-0.2544,-0.2573,-0.2536,-0.2542,-0.2523,-0.246,-0.2485,-0.2397,-0.2384,-0.226,-0.222,-0.2,-0.2059,-0.1911,-0.188,-0.184,-0.1824,-0.211,-0.2117,-0.2063,-0.2065,-0.2066,-0.2067,0,-0.2504,-0.254,-0.2516,-0.2527,-0.2523,-0.2495,-0.2477,-0.2452,-0.2454,-0.2376,-0.2371,-0.2305,-0.2152,-0.2074,-0.195,-0.1885,-0.1755,-0.1656,-0.1578,-0.1539,-0.1649,-0.1662,-0.1433,-0.1425,-0.1419,-0.1414,-0.141,0,-0.2464,-0.2457,-0.2452,-0.2432,-0.2423,-0.2398,-0.2378,-0.2402,-0.2372,-0.2283,-0.2228,-0.2074,-0.1928,-0.1659,-0.1533,-0.1373,-0.1496,-0.1209,-0.1315,-0.1584,-0.1578,-0.1601,-0.1621,-0.1178,-0.1172,-0.1167,-0.1163,0,-0.2363,-0.2368,-0.236,-0.2318,-0.2291,-0.2264,-0.2242,-0.2214,-0.222,-0.2138,-0.1993,-0.1878,-0.1593,-0.1379,-0.1151,-0.1061,-0.1252,-0.1103,-0.138,-0.1348,-0.1327,-0.1328,-0.1359,-0.1121,-0.1125,-0.1128,-0.1131,-0.1132,-0.2266,-0.2231,-0.2229,-0.218,-0.2156,-0.2121,-0.2068,-0.2058,-0.1979,-0.1837,-0.1775,-0.1542,-0.1434,-0.1033,-0.0878,-0.0743,-0.0857,-0.0877,-0.09,-0.0925,-0.0926,-0.0896,-0.0606,-0.0607,-0.0608,-0.0609,-0.061,0,-0.213,-0.2123,-0.2088,-0.2039,-0.1982,-0.2005,-0.196,-0.189,-0.177,-0.1638,-0.1476,-0.1171,-0.097,-0.0846,-0.0585,-0.0489,-0.0545,-0.046,-0.0614,-0.0653,-0.0689,-0.0687,-0.0298,-0.0297,-0.0296,-0.0296,0,0,-0.2061,-0.2005,-0.2002,-0.1881,-0.1844,-0.1738,-0.1697,-0.16,-0.1495,-0.1246,-0.108,-0.1019,-0.0919,-0.0696,-0.057,-0.0426,-0.0549,-0.0363,-0.0617,-0.0848,-0.0885,-0.0922,-0.0959,0,0,0,0,0]},{"header":{"parameterUnit":"m.s-1","parameterCategory":2,"la1":30.2991,"la2":30.254,"lo1":-89.0895,"lo2":-89.0444,"dy":0.0017,"dx":0.0017,"nx":28,"ny":28,"refTime":"2023-07-28T21:00:00:Z","depth":"2","parameterNumber":3,"parameterNumberName":"V-component_of_CURRENTS"},"data":[0,0,0,0,0,0,0,0,0,0,0,0,0,0,0,0,0,0,0,0,0,0,0,0,0,0,0,0,0,0,0,0,0,0,0,0,0,0,0,0,0,0,0,0,0,0,0,0,0,0,0,0,0,0,0,0,0,0,0.0173,0.0175,0,0.0444,0.0448,0.0452,0.068,0.0681,0.0683,0.0684,0.1021,0.1028,0.1036,0,0,0,0,0,0,0,0,0,0,0,0,0,0.0029,0.003,0.0172,0.0175,0.0177,0.0443,0.0448,0.0453,0.0679,0.0681,0.0683,0.0685,0.1019,0.1028,0.1037,0,0,0,0,0,0,0,0,0,0,0,0,0,0.0184,0.0031,0.0172,0.0315,0.0329,0.0442,0.0448,0.0454,0.0679,0.0681,0.0684,0.0686,0.1016,0.1027,0.1038,0.1063,0,0,0.1073,0.1078,0,0,0,0,0,0,0,0,0.0175,0.0191,0.0291,0.0305,0.0321,0.0521,0.0521,0.0657,0.0678,0.0557,0.0684,0.0687,0.0851,0.0876,0.0937,0.1078,0.1093,0.1074,0.108,0.1085,0.1089,0,0,0,0,0,0,0,0.0164,0.0181,0.0291,0.0293,0.0312,0.0426,0.045,0.0549,0.0698,0.0568,0.0583,0.0595,0.0862,0.0925,0.0946,0.1098,0.1073,0.1083,0.109,0.1095,0.1397,0.1398,0,0,0,0,0,0,0.0097,0.0169,0.0282,0.0298,0.0241,0.0425,0.0452,0.0463,0.0696,0.073,0.0593,0.0605,0.0904,0.0932,0.0959,0.1071,0.1085,0.1096,0.1102,0.1395,0.1397,0.1398,0,0,0,0,0,0,0.0093,0.0104,0.0271,0.0232,0.026,0.0422,0.0435,0.0467,0.0568,0.0712,0.075,0.0663,0.0907,0.0943,0.1093,0.1083,0.1101,0.1111,0.1394,0.1396,0.1397,0.125,0,0,0,0,0,0,0.0088,0.0101,0.0125,0.0227,0.0259,0.0325,0.0432,0.047,0.0565,0.0584,0.0783,0.0815,0.0912,0.1075,0.1104,0.1099,0.112,0.1392,0.1395,0.1397,0.1253,0.1247,0.1241,0,0,0,0,0,0.0082,0.011,0.0125,0.014,0.0273,0.0322,0.0351,0.0482,0.0565,0.0589,0.0757,0.0811,0.1109,0.1086,0.1119,0.1117,0.1391,0.1394,0.1397,0.1256,0.1248,0.1241,0,0,0,0,0,0,0.0059,0.0137,0.0156,0.0205,0.024,0.0357,0.0421,0.0488,0.0642,0.07,0.0841,0.0884,0.101,0.1091,0.1062,0.1214,0.1253,0.1262,0.1135,0.1128,0.1122,0.106,0.113,0,0,0,0,0,0.005,0.0113,0.0147,0.0191,0.0204,0.0309,0.0365,0.0437,0.0562,0.0636,0.0764,0.0917,0.1039,0.1107,0.1229,0.1311,0.1342,0.133,0.1324,0.1318,0.1293,0.1278,0.1265,0.1407,0.1407,0.1407,0,0,0.0055,0.0108,0.0143,0.0193,0.0254,0.0289,0.0355,0.0433,0.0495,0.0645,0.0803,0.0909,0.1063,0.1167,0.1226,0.1236,0.1313,0.1321,0.1314,0.1293,0.1279,0.1265,0.1251,0.1409,0.1409,0.1408,0,0,0.0085,0.0126,0.0175,0.0194,0.0259,0.0315,0.0325,0.0426,0.0505,0.0629,0.0759,0.085,0.1054,0.1129,0.1203,0.1233,0.1286,0.1279,0.1187,0.1172,0.1158,0.1146,0.1225,0.1221,0.1264,0.1263,0.1263,0,0.0083,0.0137,0.019,0.0217,0.0244,0.0315,0.0338,0.042,0.0566,0.06,0.0669,0.0892,0.1028,0.1103,0.1133,0.121,0.1239,0.1194,0.1154,0.1143,0.1133,0.1216,0.1213,0.1257,0.1257,0.1258,0.1259,0,0.0119,0.0164,0.0189,0.0252,0.0282,0.0315,0.0375,0.0435,0.0531,0.0587,0.0673,0.0816,0.0928,0.0977,0.1088,0.1078,0.114,0.1146,0.1149,0.1107,0.1202,0.1201,0.1247,0.1249,0.1251,0.1253,0,0,0.009,0.0195,0.0199,0.0219,0.0298,0.0313,0.0395,0.0437,0.047,0.0564,0.0579,0.0753,0.0771,0.0854,0.0942,0.093,0.0935,0.1004,0.1006,0.1041,0.0959,0.0954,0.0955,0.0909,0.0906,0.0905,0.1073,0,0.0091,0.0145,0.0205,0.0248,0.0266,0.0325,0.0373,0.0426,0.0494,0.0526,0.0581,0.0657,0.0741,0.0781,0.0775,0.0903,0.0917,0.0893,0.1031,0.1037,0.0999,0.0946,0.0889,0.1025,0.1073,0.1073,0.1073,0,0.0083,0.0127,0.0159,0.0223,0.0228,0.0254,0.0295,0.0348,0.0392,0.0438,0.0451,0.0522,0.0564,0.062,0.0727,0.0704,0.0827,0.0898,0.0905,0.0936,0.1025,0.107,0.1023,0.1072,0.1072,0.1072,0.1072,0,0.0012,0.0088,0.0115,0.013,0.0205,0.0212,0.0247,0.0297,0.0324,0.0357,0.0366,0.0407,0.0449,0.0528,0.0707,0.0726,0.08,0.0857,0.0964,0.0971,0.0967,0.0974,0.0901,0.0901,0.0901,0.09,0.09,0,-0.0021,-0.0008,0.0071,0.007,0.0072,0.0137,0.0133,0.0175,0.0206,0.0207,0.0292,0.0285,0.0415,0.0491,0.0648,0.079,0.0764,0.0932,0.0977,0.0928,0.0928,0.0995,0.1003,0.0907,0.0905,0.0904,0.0903,0,-0.0107,-0.0045,-0.0027,0.003,0.0038,0.0025,0.0063,0.0061,0.0106,0.0104,0.0114,0.0198,0.0287,0.0426,0.0588,0.0731,0.0865,0.0929,0.0905,0.094,0.109,0.109,0.1094,0.1094,0.1095,0.1095,0.1095,0,-0.0145,-0.0139,-0.009,-0.0091,-0.0073,-0.0072,-0.0069,-0.0007,0.0005,0.0046,0.0037,0.0109,0.0143,0.0365,0.0625,0.087,0.0848,0.0962,0.0969,0.1047,0.1093,0.1092,0.1092,0.0968,0.0967,0.0967,0.0966,0,-0.0227,-0.0206,-0.0192,-0.0188,-0.0188,-0.018,-0.0166,-0.0175,-0.0104,-0.0112,-0.0115,-0.0102,0.0138,0.0349,0.0662,0.0789,0.091,0.0958,0.0998,0.09,0.0933,0.0976,0.0979,0.096,0.0961,0.0961,0.0961,0.0962,-0.0297,-0.0306,-0.0277,-0.0281,-0.0279,-0.0282,-0.0298,-0.028,-0.0295,-0.0272,-0.0235,-0.0125,0.0135,0.0594,0.0709,0.0879,0.0959,0.1001,0.1001,0.1003,0.0929,0.0956,0.0983,0.0983,0.0984,0.0984,0.0985,0,-0.0363,-0.0355,-0.0365,-0.0358,-0.0385,-0.0348,-0.035,-0.0367,-0.041,-0.0297,-0.029,0.0005,0.0255,0.0494,0.0811,0.097,0.0946,0.0893,0.0852,0.0859,0.0865,0.0781,0.0798,0.0797,0.0797,0.0796,0,0,-0.0389,-0.0405,-0.0398,-0.0448,-0.0455,-0.048,-0.0491,-0.0507,-0.0417,-0.0378,-0.0186,0.0078,0.041,0.0592,0.0693,0.0756,0.075,0.0715,0.086,0.0802,0.0805,0.0932,0.0811,0,0,0,0,0]}],[{"header":{"parameterUnit":"m.s-1","parameterCategory":2,"la1":30.2991,"la2":30.254,"lo1":-89.0895,"lo2":-89.0444,"dy":0.0017,"dx":0.0017,"nx":28,"ny":28,"refTime":"2023-07-28T21:00:00:Z","depth":"4","parameterNumber":2,"parameterNumberName":"U-component_of_CURRENTS"},"data":[0,0,0,0,0,0,0,0,0,0,0,0,0,0,0,0,0,0,0,0,0,0,0,0,0,0,0,0,0,0,0,0,0,0,0,0,0,0,0,0,0,0,0,0,0,0,0,0,0,0,0,0,0,0,0,0,0,0,-0.1151,-0.1151,0,-0.1196,-0.1196,-0.1197,-0.1237,-0.1237,-0.1238,-0.1238,-0.1314,-0.1316,-0.1318,0,0,0,0,0,0,0,0,0,0,0,0,0,-0.1113,-0.1113,-0.1151,-0.1151,-0.1152,-0.1196,-0.1196,-0.1197,-0.1237,-0.1237,-0.1238,-0.1238,-0.1314,-0.1316,-0.1318,0,0,0,0,0,0,0,0,0,0,0,0,0,-0.1142,-0.1114,-0.1151,-0.1176,-0.1178,-0.1195,-0.1196,-0.1197,-0.1237,-0.1237,-0.1238,-0.1238,-0.1313,-0.1315,-0.1318,-0.1325,0,0,-0.1326,-0.1327,0,0,0,0,0,0,0,0,-0.114,-0.1144,-0.1172,-0.1174,-0.1177,-0.121,-0.1211,-0.1241,-0.1237,-0.1216,-0.1238,-0.1239,-0.1281,-0.1286,-0.1295,-0.1328,-0.1331,-0.1326,-0.1328,-0.1329,-0.133,0,0,0,0,0,0,0,-0.1138,-0.1142,-0.117,-0.1172,-0.1175,-0.1189,-0.1194,-0.1217,-0.1247,-0.1218,-0.1221,-0.1223,-0.1283,-0.1293,-0.1297,-0.1333,-0.1326,-0.1328,-0.133,-0.1331,-0.1426,-0.1427,0,0,0,0,0,0,-0.1128,-0.114,-0.1169,-0.1172,-0.1157,-0.1189,-0.1194,-0.12,-0.1246,-0.1253,-0.1222,-0.1225,-0.1288,-0.1294,-0.13,-0.1363,-0.1329,-0.1331,-0.1333,-0.1425,-0.1426,-0.1427,0,0,0,0,0,0,-0.1127,-0.1131,-0.1167,-0.1155,-0.1161,-0.1189,-0.1195,-0.1201,-0.1232,-0.1249,-0.1257,-0.125,-0.1289,-0.1297,-0.1338,-0.1364,-0.1332,-0.1335,-0.1424,-0.1425,-0.1426,-0.1455,0,0,0,0,0,0,-0.1126,-0.113,-0.1145,-0.1155,-0.1161,-0.1191,-0.1195,-0.1201,-0.123,-0.1234,-0.1274,-0.1281,-0.129,-0.1334,-0.134,-0.1367,-0.1337,-0.1422,-0.1424,-0.1426,-0.1453,-0.1458,-0.1461,0,0,0,0,0,-0.1125,-0.1137,-0.1146,-0.115,-0.1176,-0.1192,-0.1197,-0.1219,-0.1231,-0.1249,-0.1275,-0.1281,-0.135,-0.1337,-0.1344,-0.1373,-0.1421,-0.1424,-0.1426,-0.1451,-0.1457,-0.1461,0,0,0,0,0,0,-0.1135,-0.1142,-0.1152,-0.1169,-0.1186,-0.1198,-0.1218,-0.1231,-0.1266,-0.1277,-0.1294,-0.1302,-0.1351,-0.1355,-0.134,-0.1404,-0.1386,-0.139,-0.1403,-0.1409,-0.1413,-0.1407,-0.1339,0,0,0,0,0,-0.1141,-0.1151,-0.1163,-0.118,-0.1189,-0.1209,-0.1223,-0.1238,-0.126,-0.1277,-0.1307,-0.1335,-0.1362,-0.138,-0.1407,-0.1439,-0.143,-0.1462,-0.1466,-0.1469,-0.1469,-0.1481,-0.1486,-0.1434,-0.1434,-0.1434,0,0,-0.1152,-0.1156,-0.1165,-0.1183,-0.1199,-0.1217,-0.122,-0.1247,-0.1269,-0.128,-0.1333,-0.1358,-0.1376,-0.1416,-0.1437,-0.1424,-0.1477,-0.1472,-0.1475,-0.1473,-0.1484,-0.1488,-0.1493,-0.1435,-0.1435,-0.1435,0,0,-0.1161,-0.1181,-0.1188,-0.1202,-0.1224,-0.1238,-0.1249,-0.1278,-0.1302,-0.1348,-0.1361,-0.1394,-0.1446,-0.1455,-0.1466,-0.1506,-0.1503,-0.1526,-0.1539,-0.155,-0.1554,-0.1558,-0.1539,-0.154,-0.1522,-0.1522,-0.1522,0,-0.1175,-0.1182,-0.1196,-0.1205,-0.1221,-0.1249,-0.1266,-0.1293,-0.1335,-0.1357,-0.1372,-0.1449,-0.146,-0.1495,-0.1507,-0.1515,-0.1516,-0.1518,-0.1555,-0.1558,-0.1561,-0.1541,-0.1542,-0.1524,-0.1524,-0.1524,-0.1523,0,-0.1179,-0.1197,-0.1205,-0.1225,-0.1248,-0.1268,-0.1299,-0.1334,-0.1372,-0.1401,-0.1464,-0.1488,-0.1526,-0.1539,-0.1536,-0.1569,-0.1559,-0.1562,-0.154,-0.1568,-0.1545,-0.1546,-0.1526,-0.1526,-0.1525,-0.1525,0,0,-0.1175,-0.1201,-0.1208,-0.1218,-0.126,-0.1273,-0.1318,-0.1359,-0.1389,-0.1452,-0.1493,-0.1541,-0.1564,-0.1576,-0.1585,-0.1593,-0.1603,-0.159,-0.159,-0.1565,-0.1616,-0.1495,-0.1484,-0.1623,-0.1624,-0.1625,-0.1585,0,-0.1176,-0.1189,-0.1211,-0.1241,-0.125,-0.1291,-0.1323,-0.1369,-0.1423,-0.1474,-0.1516,-0.1565,-0.1576,-0.1597,-0.1612,-0.1609,-0.161,-0.1612,-0.1596,-0.1595,-0.148,-0.1483,-0.1627,-0.1585,-0.1586,-0.1586,-0.1586,0,-0.1168,-0.1176,-0.1199,-0.1231,-0.1241,-0.1269,-0.1327,-0.1364,-0.1438,-0.1478,-0.1544,-0.1587,-0.1617,-0.1622,-0.1637,-0.1644,-0.1632,-0.1627,-0.1625,-0.1503,-0.1476,-0.1555,-0.1587,-0.1587,-0.1587,-0.1587,-0.1587,0,-0.1135,-0.1168,-0.1184,-0.1197,-0.1241,-0.1264,-0.1299,-0.1369,-0.1403,-0.1488,-0.1518,-0.1587,-0.1603,-0.1628,-0.1626,-0.1637,-0.163,-0.1637,-0.1517,-0.1507,-0.1616,-0.1613,-0.1643,-0.1643,-0.1644,-0.1644,-0.1644,0,-0.1109,-0.1125,-0.1169,-0.1177,-0.1193,-0.1243,-0.1282,-0.1326,-0.1398,-0.1427,-0.1519,-0.1531,-0.1608,-0.1621,-0.1628,-0.1562,-0.1629,-0.1509,-0.1489,-0.1627,-0.1626,-0.1616,-0.1613,-0.1642,-0.1642,-0.1643,-0.1643,0,-0.1065,-0.1098,-0.1116,-0.1164,-0.1175,-0.1193,-0.1254,-0.1281,-0.1354,-0.1392,-0.1417,-0.1487,-0.1478,-0.1536,-0.1548,-0.1523,-0.15,-0.1462,-0.1586,-0.1577,-0.1368,-0.1368,-0.1313,-0.1308,-0.1304,-0.1301,-0.1298,0,-0.1038,-0.1042,-0.1095,-0.1099,-0.1121,-0.1152,-0.1165,-0.1247,-0.127,-0.1338,-0.1335,-0.1364,-0.1394,-0.1304,-0.1381,-0.1378,-0.1373,-0.1362,-0.1382,-0.1347,-0.1335,-0.1341,-0.1345,-0.1292,-0.1291,-0.129,-0.1289,0,-0.0981,-0.1017,-0.1031,-0.1038,-0.1054,-0.1067,-0.1094,-0.1097,-0.1175,-0.125,-0.1203,-0.1207,-0.1183,-0.1196,-0.1204,-0.1212,-0.1376,-0.1321,-0.133,-0.1348,-0.1322,-0.1315,-0.1324,-0.1276,-0.1277,-0.1279,-0.128,0,-0.0942,-0.0938,-0.0963,-0.0961,-0.0976,-0.0964,-0.0994,-0.0986,-0.1011,-0.1087,-0.1054,-0.1085,-0.1134,-0.1105,-0.1116,-0.1111,-0.1101,-0.1093,-0.1113,-0.1129,-0.1095,-0.1036,-0.0872,0,0,0,0,0,-0.0888,-0.0875,-0.0874,-0.0864,-0.088,-0.0886,-0.093,-0.0968,-0.1032,-0.0958,-0.1005,-0.0974,-0.096,-0.0981,-0.0939,-0.1061,-0.113,-0.1013,-0.1137,-0.1201,-0.1216,-0.1198,0,0,0,0,0,0,-0.0846,-0.0851,-0.0848,-0.0785,-0.0756,-0.0761,-0.0786,-0.0836,-0.0796,-0.0863,-0.0846,-0.0907,-0.0901,-0.0949,-0.0909,-0.0923,-0.0982,-0.1044,-0.1041,-0.1192,-0.1206,-0.1219,-0.1205,0,0,0,0,0]},{"header":{"parameterUnit":"m.s-1","parameterCategory":2,"la1":30.2991,"la2":30.254,"lo1":-89.0895,"lo2":-89.0444,"dy":0.0017,"dx":0.0017,"nx":28,"ny":28,"refTime":"2023-07-28T21:00:00:Z","depth":"4","parameterNumber":3,"parameterNumberName":"V-component_of_CURRENTS"},"data":[0,0,0,0,0,0,0,0,0,0,0,0,0,0,0,0,0,0,0,0,0,0,0,0,0,0,0,0,0,0,0,0,0,0,0,0,0,0,0,0,0,0,0,0,0,0,0,0,0,0,0,0,0,0,0,0,0,0,-0.0239,-0.0239,0,-0.0232,-0.0232,-0.0231,-0.0224,-0.0224,-0.0224,-0.0224,-0.0195,-0.0194,-0.0194,0,0,0,0,0,0,0,0,0,0,0,0,0,-0.0258,-0.0258,-0.0239,-0.0239,-0.0238,-0.0232,-0.0232,-0.0231,-0.0224,-0.0224,-0.0224,-0.0224,-0.0195,-0.0194,-0.0194,0,0,0,0,0,0,0,0,0,0,0,0,0,-0.025,-0.0258,-0.0239,-0.0234,-0.0233,-0.0232,-0.0232,-0.0231,-0.0224,-0.0224,-0.0224,-0.0224,-0.0195,-0.0195,-0.0194,-0.0192,0,0,-0.0191,-0.019,0,0,0,0,0,0,0,0,-0.0251,-0.025,-0.0235,-0.0234,-0.0233,-0.0228,-0.0228,-0.0217,-0.0224,-0.0228,-0.0224,-0.0223,-0.0204,-0.0202,-0.0202,-0.019,-0.0189,-0.0191,-0.019,-0.019,-0.0189,0,0,0,0,0,0,0,-0.0251,-0.025,-0.0236,-0.0234,-0.0234,-0.0236,-0.0234,-0.0226,-0.0217,-0.0228,-0.0227,-0.0226,-0.0204,-0.0203,-0.0201,-0.0189,-0.0191,-0.019,-0.0189,-0.0189,-0.0191,-0.0192,0,0,0,0,0,0,-0.0251,-0.0251,-0.0237,-0.0236,-0.0241,-0.0236,-0.0234,-0.023,-0.0218,-0.0216,-0.0226,-0.0225,-0.0205,-0.0203,-0.02,-0.0209,-0.019,-0.0189,-0.0188,-0.019,-0.0191,-0.0192,0,0,0,0,0,0,-0.0251,-0.025,-0.0237,-0.0243,-0.0241,-0.0235,-0.0231,-0.023,-0.0232,-0.0216,-0.0214,-0.0229,-0.0205,-0.0202,-0.0206,-0.0207,-0.0188,-0.0187,-0.019,-0.0191,-0.0191,-0.0219,0,0,0,0,0,0,-0.0252,-0.025,-0.0254,-0.0243,-0.0241,-0.0236,-0.0231,-0.023,-0.0231,-0.023,-0.0218,-0.0215,-0.0204,-0.0207,-0.0205,-0.0206,-0.0187,-0.0189,-0.019,-0.0191,-0.0217,-0.0221,-0.0224,0,0,0,0,0,-0.0253,-0.0253,-0.0254,-0.0253,-0.0245,-0.0236,-0.0235,-0.0231,-0.0232,-0.0232,-0.0233,-0.0216,-0.0213,-0.0207,-0.0204,-0.0205,-0.0188,-0.019,-0.0191,-0.0216,-0.022,-0.0224,0,0,0,0,0,0,-0.0261,-0.0252,-0.0253,-0.0251,-0.0246,-0.0234,-0.0237,-0.0234,-0.0236,-0.0238,-0.0226,-0.0223,-0.0226,-0.0216,-0.021,-0.021,-0.0196,-0.0197,-0.0216,-0.022,-0.0223,-0.0217,-0.0186,0,0,0,0,0,-0.0266,-0.0268,-0.0257,-0.0258,-0.0254,-0.0248,-0.0247,-0.0242,-0.0239,-0.024,-0.0232,-0.0228,-0.0229,-0.0226,-0.0221,-0.0222,-0.0172,-0.022,-0.0223,-0.0226,-0.022,-0.0133,-0.0127,-0.0196,-0.0196,-0.0196,0,0,-0.0271,-0.0267,-0.0269,-0.0261,-0.0257,-0.0263,-0.0247,-0.0244,-0.0254,-0.0236,-0.0248,-0.0238,-0.0233,-0.0236,-0.0236,-0.0227,-0.0186,-0.0228,-0.023,-0.0222,-0.0134,-0.0127,-0.012,-0.0197,-0.0197,-0.0197,0,0,-0.0282,-0.0276,-0.0284,-0.0282,-0.0277,-0.0274,-0.0274,-0.0264,-0.0264,-0.0276,-0.0265,-0.0254,-0.0262,-0.0247,-0.0245,-0.0262,-0.0206,-0.0266,-0.0275,-0.0191,-0.0184,-0.0177,-0.012,-0.0107,-0.0267,-0.0267,-0.0267,0,-0.0291,-0.03,-0.0284,-0.0293,-0.03,-0.0282,-0.0296,-0.0293,-0.0288,-0.0286,-0.0286,-0.027,-0.0265,-0.0253,-0.0268,-0.0266,-0.0217,-0.026,-0.0192,-0.0184,-0.0176,-0.0119,-0.0105,-0.0268,-0.0268,-0.0268,-0.0268,0,-0.0308,-0.0321,-0.0323,-0.0335,-0.0338,-0.0343,-0.0337,-0.0337,-0.0339,-0.0331,-0.0316,-0.0295,-0.028,-0.028,-0.0288,-0.0238,-0.0222,-0.0204,-0.0176,-0.017,-0.0112,-0.0096,-0.027,-0.027,-0.0269,-0.0269,0,0,-0.0314,-0.0334,-0.0337,-0.036,-0.0362,-0.0369,-0.038,-0.0382,-0.0392,-0.0364,-0.0356,-0.0345,-0.0309,-0.0304,-0.0283,-0.0222,-0.014,-0.0198,-0.0193,-0.0132,0.0035,0.0005,0.0019,-0.01,-0.0098,-0.0096,0.0049,0,-0.0338,-0.037,-0.0372,-0.0414,-0.0433,-0.0427,-0.0444,-0.044,-0.0434,-0.0418,-0.0361,-0.0349,-0.0325,-0.0315,-0.0244,-0.0173,-0.0099,-0.0182,0.0012,0.0017,-0.0001,0.0036,-0.0087,0.0061,0.0065,0.0067,0.0069,0,-0.0357,-0.038,-0.0422,-0.0466,-0.0473,-0.0495,-0.0517,-0.0526,-0.0493,-0.048,-0.0425,-0.0382,-0.0301,-0.0275,-0.0102,-0.0155,-0.0061,0.0008,0.0016,0.0011,0.0016,0.0057,0.0098,0.0096,0.0093,0.0092,0.009,0,-0.0378,-0.042,-0.046,-0.0473,-0.051,-0.0532,-0.0549,-0.0544,-0.0551,-0.0503,-0.0494,-0.0381,-0.0334,-0.0181,-0.0059,-0.0067,0.0138,0.0152,0.0224,0.0222,0.0219,0.021,0.0305,0.0305,0.0304,0.0304,0.0303,0,-0.0405,-0.0441,-0.0477,-0.0501,-0.0555,-0.0565,-0.0607,-0.0606,-0.0589,-0.059,-0.0517,-0.0479,-0.0306,-0.0184,-0.0045,0.0126,0.0163,0.0236,0.0268,0.0198,0.0186,0.0229,0.0218,0.0309,0.0308,0.0307,0.0306,0,-0.0426,-0.0447,-0.0501,-0.055,-0.0569,-0.0606,-0.0649,-0.067,-0.0655,-0.0646,-0.0627,-0.0533,-0.0373,-0.0204,0.0028,0.0121,0.03,0.0356,0.0251,0.0272,0.0328,0.0314,0.0469,0.0469,0.047,0.047,0.047,0,-0.044,-0.0467,-0.0535,-0.057,-0.0599,-0.0651,-0.0684,-0.0695,-0.0703,-0.0674,-0.0657,-0.0534,-0.0448,-0.0136,0.0032,0.0307,0.0336,0.0415,0.0393,0.0335,0.0351,0.0336,0.0322,0.0471,0.0471,0.0471,0.0471,0,-0.0469,-0.0492,-0.0534,-0.0601,-0.0652,-0.0708,-0.0747,-0.0752,-0.0751,-0.0746,-0.0652,-0.0516,-0.0349,-0.0125,0.0066,0.0263,0.0357,0.0419,0.042,0.0401,0.0339,0.0351,0.0336,0.0472,0.0472,0.0472,0.0472,0,-0.0487,-0.0521,-0.057,-0.0627,-0.0693,-0.0741,-0.0762,-0.0752,-0.075,-0.0702,-0.0667,-0.0499,-0.04,-0.0147,0.0041,0.0214,0.0264,0.0312,0.0319,0.032,0.0218,0.0114,0.0222,0,0,0,0,0,-0.0502,-0.0535,-0.0592,-0.0659,-0.0722,-0.0757,-0.0793,-0.08,-0.0793,-0.0721,-0.0688,-0.0522,-0.0267,-0.0158,0.002,0.004,0.0279,0.0249,0.0334,0.0478,0.0477,0.0378,0,0,0,0,0,0,-0.0514,-0.0566,-0.059,-0.0667,-0.0712,-0.0782,-0.0803,-0.0801,-0.074,-0.0708,-0.0554,-0.0496,-0.0228,-0.0358,0.002,0.0066,0.0139,0.037,0.0373,0.0479,0.0478,0.0477,0.0375,0,0,0,0,0]}]]